Total_Precipitation_Accumulation
0.76 1.02 1.70 1.72 1.50 1.09 0.44 0.25 0.21 0.36 0.60 0.71 0.83 0.81 0.94 1.17 1.26 1.32 1.48 1.38 1.26 0.96
0.86 1.24 1.47 1.58 1.82 1.72 1.69 1.00 0.63 0.71 0.74 0.84 0.92 1.11 1.15 1.17 1.07 0.96 0.89 1.15 1.34 1.25
0.61 0.87 1.21 1.41 2.11 1.56 1.30 1.65 1.28 1.04 0.95 0.75 0.81 1.01 0.90 0.82 0.84 1.02 0.95 0.99 1.14 1.11
0.78 0.89 1.25 1.24 1.57 1.91 1.20 1.04 1.08 0.92 0.82 0.63 0.70 0.94 0.89 0.80 0.76 0.80 1.01 1.00 1.06 1.07
1.32 1.31 1.26 1.29 1.20 1.21 1.30 1.28 1.00 0.72 0.60 0.57 0.57 0.79 0.97 0.93 0.84 0.81 0.76 0.82 0.93 1.09
1.52 1.44 1.35 1.24 0.92 0.62 0.64 0.69 0.63 0.68 0.56 0.54 0.54 0.59 0.56 0.51 0.55 0.60 0.68 0.72 0.74 0.79
1.03 1.12 0.74 0.72 0.65 0.52 0.41 0.39 0.38 0.34 0.36 0.37 0.37 0.39 0.41 0.45 0.45 0.40 0.37 0.39 0.54 0.69
0.78 0.88 0.76 0.80 0.68 0.46 0.39 0.34 0.35 0.36 0.40 0.43 0.45 0.50 0.46 0.37 0.35 0.33 0.34 0.37 0.47 0.60
0.63 0.60 0.64 0.68 0.68 0.56 0.49 0.54 0.54 0.58 0.58 0.51 0.47 0.87 0.63 0.45 0.35 0.39 0.54 0.61 0.59 0.70
0.63 0.71 0.66 0.81 0.87 0.87 0.84 1.07 1.12 1.05 0.94 0.67 0.54 0.87 0.70 0.63 0.34 0.39 0.50 0.54 0.56 0.56
0.83 0.74 0.74 0.82 0.83 1.22 1.61 1.36 1.10 0.97 0.88 0.88 0.93 0.97 0.88 0.98 0.65 0.62 0.59 0.51 0.44 0.43
1.05 1.15 1.10 1.09 1.27 1.31 1.23 1.06 0.97 0.86 0.84 0.75 0.70 0.98 0.81 0.80 0.54 0.65 0.69 0.65 0.71 0.79
1.06 1.32 1.54 1.67 1.51 1.24 1.16 1.22 1.18 1.11 1.06 1.11 0.75 1.05 0.94 0.92 0.75 0.90 0.92 0.88 0.95 1.58
1.10 1.13 1.23 1.27 1.32 1.37 1.34 1.23 1.25 1.33 1.30 1.31 1.25 1.18 1.19 1.18 1.03 1.16 1.25 1.28 1.23 1.37